ARCADE

导读

ARCADE是新加坡的一颗27U微型卫星,于北京时间2023年7月30日随印度PSLV-C56运载火箭发射升空,进入536千米高度的近地轨道。它由新加坡南洋理工大学与国际卫星研究与技术计划联合会合作设计制造,发射质量24千克,搭载碘基固体推进剂的霍尔效应推进模块,主要用于低空飞行任务中的轨道维持技术验证。

Basic Information
目录编号:
57485
目录名称:
ARCADE
国际标识:
2023-109E
轨道中心:
EARTH
卫星名称:
ARCADE
卫星全名:
--
卫星状态:
在轨 (已飞行1080 天)
发射日期:
2023-07-30 UTC
国别 :
新加坡 (SG)
星等 :
--
Orbit Information
数据来源 国际轨道数据
星历时间: 2023-12-24T12:42:39+0800
轨道信息已过期933天
半长轴: 6899.886km
偏心率: 0.0009185
轨道倾角: 4.998°
近地点辐角 53.834°
升交点赤经 247.634°
平近点角 306.262°
近地点: 515.413km
远地点: 528.089km
周期: 95.065分钟
每日圈数: 15.147465
Detailed Information
使用方式:
暂无
2D Orbit Map
3D Orbit Map
Orbit Altitude Analysis Chart
Orbit Inclination Analysis Chart
Orbit Comprehensive Analysis Chart
View Comprehensive Chart